DW6143 Weather Reports


Display with metric or nautical units.
time (UTC)temp
F
wind
direction
speed
MPH
gust
MPH
rain 1hr
in
rain 24hr
in
rain mn
in
humidity
%
barometer
mb
20190324153954 56 294 7.0 17.0 0.00 0.00 0.00 47 1028.3
20190324152943 56 337 6.0 14.0 0.00 0.00 0.00 48 1028.3
20190324151917 56 301 7.0 18.0 0.00 0.00 0.00 49 1028.3
20190324150845 56 306 6.0 17.0 0.00 0.00 0.00 50 1028.4
20190324145846 56 344 7.0 15.0 0.00 0.00 0.00 50 1028.4
20190324144844 57 296 6.0 13.0 0.00 0.00 0.00 50 1028.3
20190324143854 56 296 5.0 12.0 0.00 0.00 0.00 51 1028.3
20190324142905 57 302 5.0 15.0 0.00 0.00 0.00 49 1028.4
20190324141859 58 301 4.0 15.0 0.00 0.00 0.00 50 1028.5
20190324140846 57 351 5.0 13.0 0.00 0.00 0.00 50 1028.6
20190324135825 57 342 4.0 12.0 0.00 0.00 0.00 51 1028.7
20190324134833 57 340 4.0 14.0 0.00 0.00 0.00 49 1028.7
20190324133813 56 355 6.0 14.0 0.00 0.00 0.00 50 1028.9
20190324132747 56 252 5.0 11.0 0.00 0.00 0.00 49 1029.0
20190324131735 57 296 3.0 13.0 0.00 0.00 0.00 50 1029.1
20190324130713 57 355 4.0 13.0 0.00 0.00 0.00 53 1029.2
20190324125722 57 286 3.0 10.0 0.00 0.00 0.00 52 1029.4
20190324124716 56 342 4.0 12.0 0.00 0.00 0.00 54 1029.5
20190324123713 56 294 4.0 13.0 0.00 0.00 0.00 54 1029.6
20190324122711 55 279 4.0 13.0 0.00 0.00 0.00 54 1029.7
20190324121645 55 304 4.0 13.0 0.00 0.00 0.00 54 1029.9
20190324120616 55 331 5.0 12.0 0.00 0.00 0.00 55 1029.9
20190324115609 55 262 4.0 12.0 0.00 0.00 0.00 55 1030.2
20190324114546 55 286 3.0 10.0 0.00 0.00 0.00 55 1030.2
20190324113605 54 322 3.0 10.0 0.00 0.00 0.00 54 1030.3
20190324112613 54 317 3.0 11.0 0.00 0.00 0.00 56 1030.3
20190324111602 54 268 2.0 10.0 0.00 0.00 0.00 57 1030.4
20190324110552 53 315 4.0 11.0 0.00 0.00 0.00 57 1030.5
20190324105535 54 338 2.0 10.0 0.00 0.00 0.00 59 1030.8
20190324104511 53 287 4.0 10.0 0.00 0.00 0.00 61 1030.7
20190324103512 52 263 4.0 9.0 0.00 0.00 0.00 62 1030.8
20190324102516 52 304 2.0 10.0 0.00 0.00 0.00 62 1030.9
20190324101457 51 350 3.0 10.0 0.00 0.00 0.00 65 1031.1
20190324100423 50 272 4.0 9.0 0.00 0.00 0.00 66 1031.2
20190324095402 50 269 3.0 10.0 0.00 0.00 0.00 68 1031.2
20190324094343 49 269 2.0 10.0 0.00 0.00 0.00 70 1031.4
20190324093319 49 0 2.0 7.0 0.00 0.00 0.00 70 1031.3
20190324092309 49 281 2.0 7.0 0.00 0.00 0.00 68 1031.3
20190324091317 48 298 1.0 7.0 0.00 0.00 0.00 68 1031.3
20190324090337 48 335 0.0 7.0 0.00 0.00 0.00 69 1031.3
20190324085345 47 338 2.0 7.0 0.00 0.00 0.00 72 1031.4
20190324084349 47 320 0.0 4.0 0.00 0.00 0.00 76 1031.4
20190324083317 45 319 0.0 4.0 0.00 0.00 0.00 79 1031.4
20190324082319 45 319 0.0 4.0 0.00 0.00 0.00 79 1031.4
20190324081250 45 324 1.0 5.0 0.00 0.00 0.00 80 1031.4
20190324080216 45 345 2.0 7.0 0.00 0.00 0.00 84 1031.4
20190324075207 45 13 0.0 4.0 0.00 0.00 0.00 90 1031.2
20190324074151 43 55 0.0 4.0 0.00 0.00 0.00 93 1031.4
20190324073148 42 78 0.0 0.0 0.00 0.00 0.00 93 1031.2
20190324072206 42 78 0.0 0.0 0.00 0.00 0.00 93 1031.1
20190324071224 41 78 0.0 0.0 0.00 0.00 0.00 94 1030.9
20190324070216 41 78 0.0 0.0 0.00 0.00 0.00 93 1030.9
20190324065149 40 78 0.0 0.0 0.00 0.00 0.00 93 1030.6
20190324064145 40 78 0.0 0.0 0.00 0.00 0.00 93 1030.7
20190324063154 40 78 0.0 0.0 0.00 0.00 0.00 93 1030.7
20190324062200 41 78 0.0 0.0 0.00 0.00 0.00 93 1030.8
20190324061153 41 78 0.0 0.0 0.00 0.00 0.00 93 1030.9
20190324060151 41 78 0.0 0.0 0.00 0.00 0.00 93 1030.8
20190324055131 40 78 0.0 0.0 0.00 0.00 0.00 93 1030.8
20190324054104 40 78 0.0 0.0 0.00 0.00 0.00 93 1030.9
20190324053122 40 78 0.0 0.0 0.00 0.00 0.00 92 1030.8
20190324052125 40 78 0.0 0.0 0.00 0.00 0.00 92 1030.8
20190324051107 40 78 0.0 0.0 0.00 0.00 0.00 92 1030.6
20190324050109 40 78 0.0 0.0 0.00 0.00 0.00 92 1030.5
20190324045105 40 78 0.0 2.0 0.00 0.00 0.00 92 1030.5
20190324044042 40 78 1.0 0.0 0.00 0.00 0.00 92 1030.3
20190324043024 40 78 0.0 3.0 0.00 0.00 0.00 91 1030.4
20190324041956 41 78 0.0 2.0 0.00 0.00 0.00 92 1030.4
20190324040942 41 78 0.0 0.0 0.00 0.00 0.00 91 1030.3
20190324035924 40 78 0.0 0.0 0.00 0.00 0.00 91 1030.4
20190324034915 40 78 0.0 0.0 0.00 0.00 0.00 91 1030.6
20190324033936 40 78 0.0 0.0 0.00 0.00 0.00 91 1030.6
20190324032943 40 78 0.0 0.0 0.00 0.00 0.00 91 1030.8
20190324031930 40 78 0.0 0.0 0.00 0.00 0.00 91 1030.8
20190324030952 40 78 0.0 0.0 0.00 0.00 0.00 90 1030.9
20190324025956 40 78 0.0 0.0 0.00 0.00 0.00 90 1030.8
20190324024953 40 78 0.0 0.0 0.00 0.00 0.00 90 1031.0
20190324024017 41 78 0.0 0.0 0.00 0.00 0.00 90 1031.1
20190324023033 41 78 1.0 2.0 0.00 0.00 0.00 90 1031.0
20190324022015 41 78 0.0 2.0 0.00 0.00 0.00 89 1031.1
20190324021605 41 78 0.0 1.0 0.00 0.00 0.00 89 1031.2
20190324020545 41 78 0.0 1.0 0.00 0.00 0.00 89 1031.2
20190324015540 41 78 1.0 3.0 0.00 0.00 0.00 89 1031.4
20190324014555 41 78 0.0 2.0 0.00 0.00 0.00 89 1031.5
20190324013608 41 78 0.0 3.0 0.00 0.00 0.00 89 1031.6
20190324012541 41 78 0.0 2.0 0.00 0.00 0.00 89 1031.8
20190324011600 41 78 0.0 1.0 0.00 0.00 0.00 88 1032.0
20190324010527 42 78 1.0 3.0 0.00 0.00 0.00 88 1032.0
20190324005518 42 78 1.0 2.0 0.00 0.00 0.00 88 1032.1
20190324004534 42 78 0.0 4.0 0.00 0.00 0.00 87 1032.3
20190324003506 42 78 1.0 4.0 0.00 0.00 0.00 87 1032.3
20190324002525 42 79 2.0 4.0 0.00 0.00 0.00 86 1032.4
20190324001538 42 85 1.0 4.0 0.00 0.00 0.00 86 1032.4
20190324000514 42 87 1.0 4.0 0.00 0.00 0.00 85 1032.4
20190323235533 42 89 1.0 4.0 0.00 0.00 0.00 85 1032.5
20190323234539 43 89 1.0 4.0 0.00 0.00 0.00 84 1032.5
20190323233545 43 89 0.0 0.0 0.00 0.00 0.00 84 1032.5
20190323232558 43 89 0.0 2.0 0.00 0.00 0.00 83 1032.4
20190323231535 44 89 0.0 3.0 0.00 0.00 0.00 83 1032.6
20190323230536 44 89 1.0 3.0 0.00 0.00 0.00 83 1032.5
20190323225535 44 89 1.0 3.0 0.00 0.00 0.00 82 1032.4
20190323224555 44 90 1.0 3.0 0.00 0.00 0.00 82 1032.5
20190323223613 44 90 0.0 1.0 0.00 0.00 0.00 82 1032.5
20190323222626 44 90 0.0 3.0 0.00 0.00 0.00 82 1032.6
20190323221607 44 90 0.0 3.0 0.00 0.00 0.00 82 1032.6
20190323220536 44 90 0.0 2.0 0.00 0.00 0.00 81 1032.6
20190323215529 44 90 0.0 3.0 0.00 0.00 0.00 81 1032.5
20190323214546 45 90 1.0 5.0 0.00 0.00 0.00 80 1032.5
20190323213532 45 92 1.0 5.0 0.00 0.00 0.00 80 1032.6
20190323212508 45 95 0.0 3.0 0.00 0.00 0.00 78 1032.6
20190323211448 45 96 1.0 5.0 0.00 0.00 0.00 78 1032.7
20190323210512 46 96 1.0 8.0 0.00 0.00 0.00 77 1032.7
20190323205506 46 97 2.0 8.0 0.00 0.00 0.00 77 1032.7
20190323204516 46 89 3.0 7.0 0.00 0.00 0.00 76 1032.7
20190323203521 46 96 2.0 7.0 0.00 0.00 0.00 75 1032.6
20190323202514 47 84 3.0 8.0 0.00 0.00 0.00 74 1032.6
20190323201513 47 100 3.0 9.0 0.00 0.00 0.00 74 1032.6
20190323200512 47 104 4.0 9.0 0.00 0.00 0.00 74 1032.7
20190323195438 47 97 3.0 9.0 0.00 0.00 0.00 75 1032.5
20190323194455 48 117 3.0 9.0 0.00 0.00 0.00 74 1032.4
20190323193438 48 92 2.0 9.0 0.00 0.00 0.00 74 1032.4
20190323192425 49 119 2.0 9.0 0.00 0.00 0.00 74 1032.3
20190323191418 49 82 2.0 8.0 0.00 0.00 0.00 75 1032.2
20190323190345 50 82 1.0 6.0 0.00 0.00 0.00 74 1032.1
20190323185403 50 59 2.0 8.0 0.00 0.00 0.00 71 1031.9
20190323184407 50 49 3.0 8.0 0.00 0.00 0.00 67 1031.9
20190323183404 50 56 2.0 8.0 0.00 0.00 0.00 66 1031.9
20190323182341 51 48 2.0 6.0 0.00 0.00 0.00 65 1031.8
20190323181400 51 46 3.0 10.0 0.00 0.00 0.00 64 1031.7
20190323180346 51 32 4.0 10.0 0.00 0.00 0.00 63 1031.6
20190323175317 52 49 3.0 9.0 0.00 0.00 0.00 62 1031.5
20190323174322 52 50 3.0 11.0 0.00 0.00 0.00 61 1031.5
20190323173323 53 36 3.0 11.0 0.00 0.00 0.00 60 1031.5
20190323172259 53 51 3.0 10.0 0.00 0.00 0.00 59 1031.5
20190323171301 54 27 4.0 11.0 0.00 0.00 0.00 59 1031.5
20190323170313 54 10 3.0 12.0 0.00 0.00 0.00 59 1031.4
20190323165244 54 51 4.0 12.0 0.00 0.00 0.00 59 1031.5
20190323164237 54 21 2.0 9.0 0.00 0.00 0.00 59 1031.4
20190323163256 54 55 2.0 9.0 0.00 0.00 0.00 58 1031.4
20190323162236 54 59 3.0 9.0 0.00 0.00 0.00 59 1031.5
20190323161227 55 84 2.0 7.0 0.00 0.00 0.00 58 1031.5
20190323160218 55 31 4.0 7.0 0.00 0.00 0.00 58 1031.6
20190323154832 55 61 4.0 12.0 0.00 0.00 0.00 58 1031.5